Wind_Speed
3 3 4 16 22 15 17 11 12 12 17 27 16 16 9 18 20 26 29 31 32 29 42 47 32 35 36 37 38 36 37 38 40 44 47 49 51 53 57 58 61 63 64 56
4 5 19 23 15 18 15 17 11 15 18 22 19 13 14 15 20 25 25 29 31 34 37 37 35 36 37 38 35 37 37 39 44 46 48 51 53 55 57 61 64 61 53 48
9 16 13 10 17 14 6 11 17 14 17 14 16 16 16 25 27 29 29 25 26 28 32 30 30 30 33 35 38 27 40 42 46 46 49 53 54 56 59 60 54 51 52 50
6 27 25 19 11 9 3 11 13 14 14 10 11 9 18 26 31 26 24 21 21 26 33 33 33 20 26 42 13 41 45 45 47 49 53 53 56 58 60 52 51 53 53 51
11 23 9 8 17 10 14 14 13 14 10 7 3 2 23 28 24 31 32 33 27 22 26 31 26 38 32 37 39 41 44 45 47 50 50 53 56 59 52 49 51 51 48 46
9 22 15 15 15 14 15 9 10 14 9 10 10 9 18 30 28 31 33 30 26 27 28 31 29 37 29 40 40 41 44 46 49 50 52 56 58 58 48 49 49 45 39 38
8 14 15 12 10 8 12 13 8 2 6 12 12 20 24 28 26 27 29 31 32 31 30 30 28 31 33 38 41 42 43 46 47 50 54 56 57 50 46 47 47 43 40 41
5 13 11 14 18 13 16 11 11 8 8 16 15 16 22 28 37 27 32 30 27 26 30 30 31 32 33 37 40 42 44 44 48 51 54 57 56 45 46 46 46 45 43 44
17 14 23 24 23 18 16 17 13 15 10 8 10 18 22 30 38 36 38 38 37 29 27 28 30 33 34 36 40 41 42 44 47 50 54 56 52 45 45 46 47 47 46 45
20 17 5 24 21 18 11 15 17 14 9 8 10 14 27 27 35 39 34 34 34 36 32 31 32 34 36 38 41 43 41 43 47 52 57 56 49 44 45 46 48 48 49 49
17 19 18 15 18 14 10 20 23 21 16 18 15 12 31 33 38 35 30 31 31 32 33 35 37 39 42 43 42 40 41 43 49 55 59 57 48 44 44 46 49 51 52 51
23 18 19 14 19 26 25 24 24 21 18 18 22 21 28 33 38 32 31 33 30 30 30 31 34 39 42 42 41 39 41 45 52 56 60 58 46 43 45 48 51 54 53 56
24 23 23 19 9 24 22 25 26 26 23 20 23 18 24 27 42 33 38 32 32 33 34 36 38 41 44 42 41 39 42 47 52 57 60 58 45 43 47 50 55 53 57 51
25 23 23 22 20 22 27 30 30 26 30 24 23 26 26 33 39 33 34 35 35 35 36 38 39 41 44 42 42 40 43 47 53 58 62 58 45 45 48 53 52 55 48 48
25 23 23 23 23 25 26 27 23 26 29 29 28 28 31 37 34 32 33 32 33 34 37 38 40 42 45 43 41 41 43 46 54 60 65 55 44 46 52 53 53 47 51 50
26 26 28 27 27 30 28 28 25 28 27 27 28 26 34 35 34 33 35 35 35 37 38 38 40 41 44 43 41 41 43 46 55 61 66 50 44 49 49 55 43 49 48 43
32 29 31 34 33 34 32 26 27 24 21 26 29 28 31 34 36 34 34 37 35 37 39 40 39 40 43 42 41 41 44 48 56 61 62 47 46 51 57 39 44 47 40 32
34 33 34 35 35 32 19 21 28 33 27 27 30 32 32 34 32 33 33 34 35 36 37 39 39 39 43 42 41 41 44 48 55 61 59 47 45 46 49 39 44 40 34 28
37 32 28 26 26 24 21 27 35 40 32 25 30 32 30 34 34 37 35 33 35 36 36 37 38 39 41 41 40 40 44 48 55 61 56 47 49 46 41 38 41 34 31 28
27 30 17 26 24 24 19 26 41 38 33 31 32 36 34 35 36 37 38 34 36 37 37 37 39 39 41 39 40 40 43 47 54 61 55 47 51 51 33 35 35 29 26 23
31 37 38 33 32 20 22 21 36 33 36 34 34 37 34 41 41 39 37 37 33 37 35 36 37 37 39 38 39 39 43 47 53 60 56 48 49 51 31 33 33 26 22 22
36 34 37 36 37 41 26 26 20 33 29 40 37 39 40 38 40 41 38 39 36 37 36 37 39 37 39 38 38 38 42 46 52 59 56 47 47 45 32 32 31 28 24 23
37 32 29 31 23 27 34 39 34 37 46 42 38 37 37 37 39 40 41 39 38 38 36 36 38 37 38 38 37 37 41 45 51 57 55 45 46 40 32 32 32 31 28 26
33 34 36 40 32 28 32 31 40 37 37 35 37 24 37 39 40 40 40 42 41 37 37 36 36 36 36 37 36 35 40 43 50 57 53 43 44 36 32 33 35 33 30 28
29 30 31 34 33 35 33 31 39 38 35 37 38 21 40 38 38 40 39 36 42 40 40 37 36 34 33 35 33 33 38 41 48 56 50 41 42 34 32 33 36 33 28 22
25 28 33 35 34 35 37 37 37 38 41 41 41 45 46 44 41 43 44 42 40 39 39 37 37 33 31 33 31 32 36 39 47 54 47 39 39 32 34 36 36 31 26 17
Wind_Direction
74 57 22 234 221 240 245 228 265 296 276 280 302 299 264 258 268 276 298 310 308 310 296 296 309 320 320 313 309 311 310 316 315 312 313 311 310 310 309 306 303 302 301 304
88 295 233 234 258 269 265 258 266 245 259 284 308 312 309 274 280 310 311 307 304 302 309 311 313 308 307 304 308 308 313 312 310 312 311 310 311 310 308 307 308 307 308 306
170 225 227 251 265 273 264 251 270 283 283 301 324 326 312 270 312 309 313 308 302 303 303 306 294 300 306 309 298 312 313 311 311 313 311 313 311 310 311 310 310 310 310 307
191 253 246 273 283 284 259 313 304 307 308 319 259 333 265 302 303 316 328 330 317 310 315 309 277 306 306 315 304 313 311 313 316 317 313 313 313 312 312 313 314 313 310 307
232 260 269 259 243 313 285 303 312 323 7 347 329 347 313 293 297 323 327 328 328 320 314 318 315 306 309 316 315 309 312 314 314 312 314 315 314 315 314 316 316 314 311 308
226 260 286 263 298 288 290 310 354 359 358 307 239 242 302 284 304 313 321 327 323 318 317 312 320 320 278 313 313 314 313 314 315 318 319 318 319 316 317 317 318 317 314 312
301 309 283 296 282 311 310 321 333 303 318 300 304 304 265 277 301 306 326 330 328 328 323 325 322 314 315 309 312 312 315 318 321 321 322 320 318 316 317 318 320 318 314 313
293 245 266 295 296 300 292 317 318 312 236 223 276 274 275 295 306 311 321 326 335 328 320 320 316 315 311 310 312 315 319 323 324 326 326 324 319 316 317 319 320 324 319 313
192 235 275 283 290 303 298 303 307 303 299 327 7 316 300 291 294 304 322 328 330 331 322 317 315 317 319 315 316 320 324 325 327 330 331 326 320 317 318 318 320 320 320 318
226 231 254 283 303 305 301 313 310 313 297 283 246 290 278 283 300 306 314 318 322 324 326 324 322 321 322 322 323 325 328 329 332 337 335 328 321 318 318 318 318 320 319 317
251 251 242 263 278 296 303 305 297 296 292 289 294 281 285 287 288 300 308 312 317 321 322 323 325 327 326 324 323 326 329 329 331 335 335 331 322 318 319 317 318 319 319 317
269 278 280 274 287 289 299 302 292 288 291 290 290 287 285 295 298 311 310 316 315 318 319 321 323 324 325 324 324 325 327 329 332 336 335 332 324 319 320 320 319 320 321 318
278 281 287 290 285 288 293 295 301 296 288 291 288 299 300 293 297 315 309 316 314 316 320 324 326 326 327 326 325 324 327 329 333 336 336 333 325 322 323 322 322 322 321 318
269 276 281 287 284 266 277 288 295 294 293 294 290 288 282 281 293 305 311 315 316 316 317 317 321 324 327 326 325 323 327 330 335 337 338 334 326 325 325 325 324 325 323 318
271 277 279 285 290 291 292 290 290 285 287 288 293 290 291 288 303 302 307 309 312 311 314 316 319 323 326 326 324 323 327 332 335 339 340 334 329 328 329 330 329 330 323 322
275 280 283 288 291 293 296 294 293 288 289 281 284 287 285 296 300 305 311 309 312 312 313 316 320 321 325 325 323 324 327 333 334 337 339 335 333 332 333 332 338 328 327 327
281 284 290 294 298 298 298 295 295 293 288 286 291 289 291 292 298 304 302 305 310 311 315 315 316 318 325 325 323 323 328 333 333 338 340 335 336 336 335 336 336 331 336 335
288 289 287 288 289 291 306 295 286 289 284 288 287 292 296 296 298 302 301 305 306 306 309 312 316 318 323 324 322 323 329 332 335 342 341 337 338 336 339 340 334 338 342 338
278 282 284 291 289 287 289 286 281 290 300 292 285 287 285 299 300 298 302 306 304 306 307 308 313 316 322 323 321 322 328 333 337 343 342 339 340 338 339 343 338 343 344 341
288 271 263 310 282 279 290 275 275 291 292 290 295 295 297 294 296 295 303 303 304 306 307 309 312 316 321 323 320 323 329 332 338 344 343 339 343 341 344 345 343 345 348 351
275 271 287 288 285 261 285 257 273 277 282 297 296 294 286 291 299 302 300 300 298 300 303 305 307 312 319 321 322 322 329 334 338 343 344 340 344 342 349 345 351 343 339 342
270 274 271 277 274 278 266 267 281 268 285 301 297 292 293 298 300 302 304 301 299 300 301 303 306 312 319 320 322 323 329 334 337 343 344 340 343 344 355 342 353 347 333 328
257 259 276 273 281 275 275 290 288 278 299 305 301 302 302 301 301 301 301 300 298 300 301 302 303 309 316 318 322 326 331 334 337 344 344 341 343 343 354 348 351 345 334 326
245 261 271 272 274 282 288 273 280 299 295 288 289 306 308 308 307 310 306 303 298 298 301 301 302 306 314 316 321 325 331 335 338 345 344 343 344 341 354 350 350 345 335 329
250 257 263 270 276 273 274 269 284 289 294 293 301 268 310 306 309 304 301 302 296 298 300 302 300 303 312 314 318 324 330 335 339 344 343 344 346 342 358 351 354 346 342 347
265 259 262 270 278 280 281 285 287 288 287 285 284 287 294 297 297 296 298 298 296 295 294 298 298 299 309 312 317 324 329 337 338 343 343 346 349 348 2 357 356 354 356 2
Height
5916 5919 5922 5927 5922 5922 5924 5923 5923 5924 5921 5914 5912 5910 5909 5910 5906 5902 5897 5892 5888 5882 5872 5862 5852 5855 5854 5856 5859 5855 5850 5847 5843 5838 5833 5827 5822 5814 5807 5800 5792 5785 5776 5768
5920 5922 5919 5919 5921 5922 5921 5921 5921 5917 5915 5911 5908 5906 5905 5904 5902 5899 5895 5891 5884 5877 5871 5864 5856 5858 5857 5856 5854 5848 5846 5842 5836 5832 5824 5818 5812 5805 5797 5788 5778 5767 5762 5755
5919 5918 5915 5918 5918 5917 5917 5916 5913 5912 5910 5908 5904 5904 5902 5897 5898 5894 5892 5887 5881 5875 5872 5868 5865 5864 5858 5852 5841 5835 5841 5836 5829 5825 5817 5810 5802 5795 5786 5776 5766 5757 5749 5743
5920 5913 5915 5916 5915 5913 5912 5910 5909 5907 5905 5904 5902 5903 5897 5895 5893 5890 5886 5882 5878 5873 5866 5860 5851 5849 5846 5844 5835 5837 5833 5828 5820 5815 5808 5801 5793 5784 5773 5763 5755 5747 5739 5732
5918 5911 5911 5913 5910 5910 5909 5907 5906 5904 5903 5900 5900 5903 5897 5892 5886 5883 5880 5875 5873 5870 5865 5856 5851 5851 5844 5842 5838 5832 5826 5822 5816 5809 5801 5793 5783 5771 5761 5753 5746 5737 5729 5722
5911 5907 5909 5908 5908 5907 5905 5904 5903 5901 5899 5900 5900 5900 5896 5886 5886 5883 5876 5874 5870 5865 5861 5853 5850 5843 5838 5836 5831 5826 5820 5814 5807 5799 5790 5780 5769 5758 5751 5744 5736 5727 5720 5713
5908 5905 5904 5906 5905 5905 5902 5901 5900 5902 5903 5901 5898 5897 5891 5888 5887 5882 5877 5870 5862 5858 5854 5849 5844 5841 5836 5832 5827 5822 5814 5807 5799 5790 5780 5769 5759 5749 5742 5734 5727 5718 5711 5704
5907 5905 5901 5900 5902 5903 5900 5900 5898 5898 5899 5898 5898 5895 5882 5881 5879 5876 5872 5866 5862 5856 5850 5845 5841 5837 5835 5829 5822 5815 5808 5799 5791 5782 5771 5760 5749 5740 5733 5725 5717 5709 5701 5695
5905 5901 5899 5899 5899 5899 5897 5896 5896 5894 5894 5894 5898 5884 5881 5876 5872 5869 5865 5859 5854 5852 5848 5843 5838 5832 5828 5822 5815 5808 5801 5793 5783 5774 5763 5751 5739 5731 5723 5716 5708 5701 5693 5686
5900 5900 5901 5895 5897 5894 5893 5894 5892 5890 5890 5891 5892 5889 5879 5872 5868 5866 5863 5857 5852 5845 5840 5836 5832 5827 5822 5815 5807 5800 5793 5784 5776 5765 5754 5742 5731 5722 5715 5707 5699 5692 5684 5675
5895 5896 5898 5897 5893 5892 5890 5890 5888 5887 5888 5885 5885 5887 5873 5872 5866 5863 5860 5854 5849 5842 5836 5831 5825 5819 5813 5807 5801 5793 5786 5778 5768 5757 5745 5733 5723 5714 5707 5699 5691 5682 5673 5664
5889 5891 5890 5892 5891 5887 5887 5885 5884 5882 5883 5881 5878 5878 5872 5865 5859 5857 5853 5848 5843 5839 5834 5829 5823 5815 5808 5802 5795 5787 5780 5771 5761 5749 5738 5725 5714 5707 5699 5690 5681 5671 5661 5652
5885 5886 5885 5887 5891 5884 5882 5881 5879 5877 5876 5876 5873 5873 5863 5859 5851 5852 5845 5843 5837 5831 5826 5821 5816 5810 5803 5795 5788 5781 5774 5765 5754 5743 5730 5717 5707 5698 5690 5681 5671 5661 5651 5641
5881 5882 5882 5882 5882 5881 5879 5876 5874 5872 5868 5869 5868 5864 5863 5856 5849 5847 5841 5835 5830 5826 5821 5816 5811 5805 5797 5789 5782 5775 5768 5758 5747 5735 5722 5710 5699 5691 5683 5674 5662 5651 5641 5631
5876 5877 5876 5877 5875 5874 5872 5871 5870 5866 5864 5861 5861 5858 5853 5846 5845 5840 5836 5831 5827 5821 5816 5811 5805 5798 5791 5784 5777 5769 5761 5752 5741 5729 5715 5702 5693 5684 5675 5664 5653 5643 5633 5622
5871 5871 5870 5870 5869 5868 5865 5863 5862 5859 5857 5854 5852 5851 5843 5840 5837 5833 5828 5823 5820 5815 5810 5804 5799 5792 5786 5778 5771 5763 5755 5746 5735 5722 5709 5696 5687 5678 5667 5656 5647 5636 5625 5614
5863 5865 5863 5861 5862 5859 5858 5855 5854 5852 5851 5847 5845 5843 5838 5833 5829 5826 5823 5817 5814 5809 5803 5798 5793 5787 5780 5772 5765 5757 5749 5740 5729 5716 5703 5691 5681 5671 5661 5650 5641 5630 5620 5611
5857 5857 5856 5854 5854 5852 5853 5849 5845 5844 5845 5842 5836 5833 5829 5826 5823 5819 5816 5813 5808 5803 5797 5792 5786 5780 5774 5767 5759 5751 5744 5734 5723 5710 5697 5685 5676 5665 5655 5646 5636 5625 5616 5609
5848 5848 5847 5846 5846 5847 5849 5847 5839 5835 5837 5835 5829 5826 5823 5819 5816 5810 5808 5806 5801 5797 5791 5786 5780 5775 5769 5762 5753 5746 5738 5729 5718 5705 5692 5681 5671 5660 5650 5642 5631 5622 5614 5608
5841 5839 5838 5841 5839 5839 5842 5841 5829 5830 5828 5825 5823 5819 5817 5813 5811 5806 5801 5799 5793 5789 5784 5779 5774 5769 5763 5756 5748 5741 5733 5724 5713 5701 5688 5676 5667 5656 5646 5638 5628 5620 5614 5608
5836 5833 5833 5832 5831 5828 5829 5827 5819 5822 5822 5821 5818 5815 5812 5808 5804 5801 5798 5792 5789 5783 5779 5774 5769 5763 5757 5751 5743 5736 5728 5719 5708 5696 5683 5672 5663 5652 5643 5635 5626 5618 5613 5608
5828 5827 5828 5827 5824 5825 5821 5821 5816 5813 5815 5813 5809 5805 5802 5801 5796 5793 5791 5785 5781 5777 5773 5768 5762 5757 5751 5745 5739 5731 5723 5715 5704 5692 5680 5669 5659 5648 5639 5632 5624 5616 5611 5606
5823 5818 5814 5819 5813 5818 5814 5812 5810 5806 5805 5802 5800 5800 5796 5792 5788 5785 5781 5778 5774 5769 5765 5761 5756 5751 5746 5739 5733 5727 5719 5710 5700 5688 5677 5667 5656 5645 5637 5629 5622 5614 5607 5602
5815 5813 5812 5809 5809 5809 5805 5806 5801 5801 5798 5797 5794 5791 5788 5784 5780 5777 5775 5770 5766 5764 5759 5754 5750 5746 5741 5735 5728 5722 5715 5707 5696 5685 5675 5664 5654 5643 5634 5627 5619 5611 5604 5597
5807 5807 5806 5804 5804 5801 5800 5798 5798 5796 5794 5790 5789 5766 5775 5773 5771 5767 5764 5762 5757 5756 5752 5748 5744 5740 5736 5730 5725 5719 5712 5704 5694 5683 5673 5663 5652 5642 5634 5626 5617 5608 5600 5592
5798 5798 5796 5796 5796 5793 5792 5791 5789 5787 5783 5781 5779 5776 5770 5765 5762 5759 5756 5754 5750 5748 5744 5743 5738 5734 5731 5725 5720 5715 5709 5701 5692 5682 5671 5662 5652 5642 5634 5626 5616 5607 5597 5591